Weather History for Managua, Nicaragua

Change the Weather History Date:

Thursday, August 29, 2013

  Actual Average Record
Temperature  
Mean Temperature 81 °F -  
Max Temperature 89 °F 87 °F 95 °F (1997)
Min Temperature 73 °F 70 °F 71 °F (1996)
Cooling Degree Days 16    
Growing Degree Days 31 (Base 50)    
Moisture  
Dew Point 72 °F    
Average Humidity 76    
Maximum Humidity 94    
Minimum Humidity 55    
Precipitation  
Precipitation 0.00 in - - ()
Sea Level Pressure  
Sea Level Pressure 29.86 in    
Wind  
Wind Speed 3 mph ()    
Max Wind Speed 12 mph    
Max Gust Speed -    
Visibility 6.1 miles    
Events Rain , Thunderstorm    
Averages and records for this station are not official NWS values.
T = Trace of Precipitation, MM = Missing Value Source: Averaged Metar Reports

Daily Weather History Graph

Daily Weather History Graph

Search for Another Location

Airport:

Trip Planner

Search our weather history database for the weather conditions in past years. The results will help you decide how hot, cold, wet, or windy it might be!

Date:

Astronomy

Aug. 29, 2013 Rise Set
Actual Time 5:34 AM CST 5:56 PM CST
Civil Twilight 5:12 AM CST 6:18 PM CST
Nautical Twilight 4:47 AM CST 6:43 PM CST
Astronomical Twilight 4:22 AM CST 7:08 PM CST
Moon No Moon Rise 12:54 PM CST (8/29)
Length of Visible Light 13h 05m
Length of Day
12h 22m
Last Quarter, 37% of the Moon is Illuminated
Aug 29
Last Quarter
Sep 5
New
Sep 12
First Quarter
Sep 19
Full
Sep 26
Last Quarter

Hourly Weather History & Observations

Time (CST) Temp. Heat Index Dew Point Humidity Pressure Visibility Wind Dir Wind Speed Gust Speed Precip Events Conditions
12:00 AM 77.0 °F - 71.6 °F 83% 29.89 in 6.2 mi Calm Calm - N/A   Partly Cloudy
1:00 AM 75.2 °F - 71.6 °F 89% 29.89 in 6.2 mi Calm Calm - N/A   Partly Cloudy
2:00 AM 75.2 °F - 71.6 °F 89% 29.89 in 6.2 mi Calm Calm - N/A   Partly Cloudy
3:00 AM 75.2 °F - 71.6 °F 89% 29.86 in 6.2 mi Calm Calm - N/A   Partly Cloudy
4:00 AM 75.2 °F - 71.6 °F 89% 29.83 in 6.2 mi Calm Calm - N/A   Partly Cloudy
5:00 AM 75.2 °F - 71.6 °F 89% 29.83 in 6.2 mi Calm Calm - N/A   Partly Cloudy
6:00 AM 73.4 °F - 71.6 °F 94% 29.86 in 6.2 mi Calm Calm - N/A   Partly Cloudy
7:00 AM 78.8 °F - 71.6 °F 78% 29.86 in 6.2 mi SSE 4.6 mph - N/A   Partly Cloudy
8:00 AM 82.4 °F 87.2 °F 71.6 °F 70% 29.89 in 6.2 mi SSE 6.9 mph - N/A   Partly Cloudy
9:00 AM 86.0 °F 91.8 °F 71.6 °F 62% 29.89 in 6.2 mi East 9.2 mph - N/A   Partly Cloudy
10:00 AM 87.8 °F 93.8 °F 71.6 °F 58% 29.89 in 6.2 mi East 9.2 mph - N/A   Scattered Clouds
11:00 AM 87.8 °F 95.6 °F 73.4 °F 62% 29.89 in 6.2 mi SE 6.9 mph - N/A   Scattered Clouds
12:00 PM 87.8 °F 95.6 °F 73.4 °F 62% 29.86 in 6.2 mi East 9.2 mph - N/A   Scattered Clouds
1:00 PM 89.6 °F 96.2 °F 71.6 °F 55% 29.86 in 6.2 mi East 9.2 mph - N/A   Scattered Clouds
2:00 PM 89.6 °F 96.2 °F 71.6 °F 55% 29.80 in 6.2 mi East 9.2 mph - N/A   Scattered Clouds
3:00 PM 89.6 °F 98.2 °F 73.4 °F 59% 29.80 in 6.2 mi East 11.5 mph - N/A   Scattered Clouds
4:00 PM 87.8 °F 95.6 °F 73.4 °F 62% 29.77 in 6.2 mi ESE 11.5 mph - N/A   Scattered Clouds
4:15 PM - - - N/A% - 5.6 mi East 11.5 mph - N/A Thunderstorm Thunderstorm
5:00 PM 82.4 °F 89.5 °F 75.2 °F 79% 29.80 in 5.6 mi NE 6.9 mph - N/A Thunderstorm Thunderstorm
5:20 PM - - - N/A% - 5.6 mi East 9.2 mph - N/A Rain , Thunderstorm Thunderstorms and Rain
6:00 PM 78.8 °F - 73.4 °F 83% 29.83 in 6.2 mi East 6.9 mph - N/A   Scattered Clouds
7:00 PM 78.8 °F - 71.6 °F 78% 29.83 in 6.2 mi Calm Calm - N/A   Scattered Clouds
8:00 PM 78.8 °F - 71.6 °F 78% 29.86 in 6.2 mi Calm Calm - N/A   Scattered Clouds
9:00 PM 77.0 °F - 71.6 °F 83% 29.89 in 6.2 mi Calm Calm - N/A   Partly Cloudy
10:00 PM 75.2 °F - 71.6 °F 89% 29.89 in 6.2 mi Calm Calm - N/A   Partly Cloudy
11:00 PM 77.0 °F - 71.6 °F 83% 29.89 in 6.2 mi Calm Calm - N/A   Partly Cloudy